DW7495 Gig Harbor WA US current weather conditions

sailwx.info

Wind from 261

Air temperature 7.8° C
Dewpoint 7.3° C

Last reported at 2019-Dec-06 18:00 UTC.
Time now 2019-Dec-06 18:33 UTC

Location: N 47°20' W 122°40'.
View on Google Maps.

See reports from other nearby stations

  
Tides and Currents Weather Stations Pressure Air Temp Water Temp Dewpoint Dewpoint Depression Visibility Wind Speed Wind Dir Waves Ship Positions
date/time (UTC)wind fromknots sea level pressurealtimeterstation pressurevisibilityair tempwater tempwave heightnotes
2019-Dec-06 18:00 261 7.8
2019-Dec-06 17:45 262 7.2
2019-Dec-06 17:30 298 6.7
2019-Dec-06 17:15 265 6.7
2019-Dec-06 17:00 266 6.7
2019-Dec-06 16:45 266 6.7
2019-Dec-06 16:30 265 6.7
2019-Dec-06 16:15 265 6.1
2019-Dec-06 16:00 265 6.1
2019-Dec-06 15:47 253 6.1
2019-Dec-06 15:33 253 6.7
2019-Dec-06 15:16 252 6.7
2019-Dec-06 15:03 252 6.7
2019-Dec-06 14:46 252 6.7
2019-Dec-06 14:32 253 6.7
2019-Dec-06 14:16 250 6.7
2019-Dec-06 14:02 250 6.7
2019-Dec-06 13:46 250 6.7
2019-Dec-06 13:32 250 6.7
2019-Dec-06 13:18 250 6.7
2019-Dec-06 13:01 250 6.7
2019-Dec-06 12:46 250 7.2
2019-Dec-06 12:31 250 7.2
2019-Dec-06 12:16 250 7.2
2019-Dec-06 12:00 250 7.2
2019-Dec-06 11:46 250 7.2
2019-Dec-06 11:32 323 7.2
2019-Dec-06 11:16 258 7.2
2019-Dec-06 11:01 239 7.2
2019-Dec-06 10:46 239 7.2
2019-Dec-06 10:31 295 7.2
2019-Dec-06 10:16 295 7.2
2019-Dec-06 10:01 296 7.2
2019-Dec-06 09:46 217 7.2
2019-Dec-06 09:31 226 7.2
2019-Dec-06 09:15 297 7.2
2019-Dec-06 09:01 195 6.7
2019-Dec-06 08:45 313 6.7
2019-Dec-06 08:31 311 6.7
2019-Dec-06 08:15 313 6.7
2019-Dec-06 08:01 313 7.2
2019-Dec-06 07:46 313 6.7
2019-Dec-06 07:30 313 6.7
2019-Dec-06 07:15 313 6.7
2019-Dec-06 07:00 313 6.7
2019-Dec-06 06:46 292 6.7
2019-Dec-06 06:30 292 7.2
2019-Dec-06 06:15 292 7.2
2019-Dec-06 06:00 292 7.2
2019-Dec-06 05:45 292 7.2
2019-Dec-06 05:30 292 7.2
2019-Dec-06 05:15 292 7.2
2019-Dec-06 05:00 292 7.2
2019-Dec-06 04:45 292 7.2
2019-Dec-06 04:31 292 7.2
2019-Dec-06 04:15 292 7.2
2019-Dec-06 04:00 292 7.8
2019-Dec-06 03:45 292 7.8
2019-Dec-06 03:30 292 7.8
2019-Dec-06 03:15 292 7.8
2019-Dec-06 03:00 292 7.2
2019-Dec-06 02:45 292 7.2
2019-Dec-06 02:30 292 7.8
2019-Dec-06 02:15 292 7.8
2019-Dec-06 02:00 292 7.8
2019-Dec-06 01:45 292 7.8
2019-Dec-06 01:30 262 7.2
2019-Dec-06 01:15 262 7.8
2019-Dec-06 01:00 262 7.8
2019-Dec-06 00:45 262 7.8
2019-Dec-06 00:30 261 8.3
2019-Dec-06 00:15 262 8.9
2019-Dec-06 00:00 271 8.9
2019-Dec-05 23:45 256 8.9
2019-Dec-05 23:30 238 8.9
2019-Dec-05 23:15 252 8.9
2019-Dec-05 23:00 242 1 gusting 3 9.4
2019-Dec-05 22:47 243 0 gusting 2 9.4
2019-Dec-05 22:31 263 0 gusting 1 9.4
2019-Dec-05 22:16 243 0 gusting 2 9.4
2019-Dec-05 22:02 238 0 gusting 1 10.0
2019-Dec-05 21:46 285 10.6
2019-Dec-05 21:31 285 10.0
2019-Dec-05 21:16 288 10.6
2019-Dec-05 21:02 295 10.0
2019-Dec-05 20:46 299 9.4
2019-Dec-05 20:31 298 9.4
2019-Dec-05 20:16 311 8.9
2019-Dec-05 20:01 307 8.9
2019-Dec-05 19:46 306 8.9
2019-Dec-05 19:30 300 8.3
2019-Dec-05 19:16 307 8.3
2019-Dec-05 19:00 330 8.3
2019-Dec-05 18:45 306 8.3
2019-Dec-05 18:31 319 8.3
2019-Dec-05 18:15 297 8.3
2019-Dec-05 18:00 316 8.3
2019-Dec-05 17:45 307 7.8
2019-Dec-05 17:30 310 7.8
2019-Dec-05 17:15 285 7.8
2019-Dec-05 17:00 297 7.8
2019-Dec-05 16:45 298 7.8
2019-Dec-05 16:30 297 7.8
2019-Dec-05 16:15 297 7.2
2019-Dec-05 16:00 309 7.2
2019-Dec-05 15:45 302 7.2
2019-Dec-05 15:17 297 7.2
2019-Dec-05 15:02 290 7.2
2019-Dec-05 14:48 276 7.2
2019-Dec-05 14:31 321 7.2
2019-Dec-05 14:18 319 7.2
2019-Dec-05 14:01 115 7.2
2019-Dec-05 13:47 320 7.2
2019-Dec-05 13:31 314 7.2
2019-Dec-05 13:17 335 7.2
2019-Dec-05 13:01 267 7.2
2019-Dec-05 12:47 296 7.8
2019-Dec-05 12:31 276 7.2
2019-Dec-05 12:16 281 7.8
2019-Dec-05 12:01 309 7.2
2019-Dec-05 11:46 264 7.2
2019-Dec-05 11:32 255 7.2
2019-Dec-05 11:16 288 7.2
2019-Dec-05 11:01 247 7.2
2019-Dec-05 10:46 316 7.2
2019-Dec-05 10:31 319 7.2
2019-Dec-05 10:16 285 7.2
2019-Dec-05 10:00 283 7.2
2019-Dec-05 09:46 243 7.2
2019-Dec-05 09:31 200 7.2
2019-Dec-05 09:16 306 7.2
2019-Dec-05 09:01 338 7.2
2019-Dec-05 08:46 217 7.2
2019-Dec-05 08:30 292 6.7
2019-Dec-05 08:16 330 7.2
2019-Dec-05 08:01 262 7.2
2019-Dec-05 07:45 282 7.2
2019-Dec-05 07:30 276 7.2
2019-Dec-05 07:16 263 7.2
2019-Dec-05 07:01 317 7.8
2019-Dec-05 06:45 218 7.8
2019-Dec-05 06:30 257 7.8
2019-Dec-05 06:15 232 7.8
2019-Dec-05 06:01 295 7.8
2019-Dec-05 05:45 323 7.8
2019-Dec-05 05:30 313 7.8
2019-Dec-05 05:15 287 7.8
2019-Dec-05 05:00 288 7.8
2019-Dec-05 04:45 289 8.3
2019-Dec-05 04:30 303 8.3
2019-Dec-05 04:15 306 8.3
2019-Dec-05 04:00 297 8.3
2019-Dec-05 03:45 307 8.3
2019-Dec-05 03:30 290 8.9
2019-Dec-05 03:15 299 8.9
2019-Dec-05 03:00 269 8.9
2019-Dec-05 02:45 323 8.9
2019-Dec-05 02:30 301 8.9
2019-Dec-05 02:00 303 9.4
2019-Dec-05 01:46 306 9.4
2019-Dec-05 01:32 307 9.4
2019-Dec-05 01:18 306 9.4
2019-Dec-05 01:02 306 9.4
2019-Dec-05 00:46 306 9.4
2019-Dec-05 00:31 306 9.4
2019-Dec-05 00:16 306 9.4
2019-Dec-05 00:02 306 10.0
2019-Dec-04 23:46 306 10.0
2019-Dec-04 23:32 306 10.0
2019-Dec-04 23:17 306 10.0
2019-Dec-04 23:02 306 10.0
2019-Dec-04 22:46 306 10.0
2019-Dec-04 22:32 306 10.0
2019-Dec-04 22:16 307 10.0
2019-Dec-04 22:01 306 9.4
2019-Dec-04 21:47 306 9.4
2019-Dec-04 21:31 306 9.4
2019-Dec-04 21:16 306 9.4
2019-Dec-04 21:01 311 9.4
2019-Dec-04 20:46 290 9.4
2019-Dec-04 20:31 277 9.4
2019-Dec-04 20:16 272 9.4
2019-Dec-04 20:01 257 9.4
2019-Dec-04 19:46 296 9.4
2019-Dec-04 19:31 296 9.4
2019-Dec-04 19:16 247 9.4
2019-Dec-04 19:01 237 9.4
2019-Dec-04 18:46 238 1 gusting 3 9.4
2019-Dec-04 18:32 252 9.4
2019-Dec-04 18:15 235 8.9
2019-Dec-04 18:00 195 1 gusting 5 8.9